| time (UTC) | temp F | wind direction | speed knots | gust knots | rain 1hr in | rain 24hr in | rain mn in | humidity % | barometer mb |
| 20260507093027 | 49 | 303 | 2.6 | 8.7 | 0.09 | 0.51 | 0.32 | 90 | 1007.7 |
| 20260507091530 | 50 | 330 | 2.6 | 8.7 | 0.14 | 0.51 | 0.32 | 90 | 1007.3 |
| 20260507090029 | 50 | 317 | 5.2 | 8.7 | 0.12 | 0.47 | 0.28 | 89 | 1007.4 |
| 20260507084519 | 50 | 310 | 5.2 | 8.7 | 0.13 | 0.46 | 0.27 | 89 | 1007.1 |
| 20260507083016 | 50 | 317 | 6.1 | 9.6 | 0.10 | 0.42 | 0.23 | 88 | 1007.6 |
| 20260507081513 | 51 | 288 | 4.3 | 8.7 | 0.06 | 0.37 | 0.18 | 88 | 1007.5 |
| 20260507080010 | 51 | 294 | 4.3 | 7.8 | 0.04 | 0.35 | 0.16 | 87 | 1007.6 |
| 20260507074507 | 51 | 322 | 4.3 | 8.7 | 0.02 | 0.33 | 0.14 | 87 | 1007.4 |
| 20260507073004 | 52 | 288 | 6.1 | 11.3 | 0.01 | 0.32 | 0.13 | 88 | 1007.3 |
| 20260507071502 | 52 | 308 | 6.1 | 9.6 | 0.00 | 0.31 | 0.12 | 89 | 1007.3 |
| 20260507070100 | 52 | 330 | 7.0 | 10.4 | 0.00 | 0.31 | 0.12 | 89 | 1006.9 |
| 20260507064603 | 52 | 328 | 2.6 | 7.0 | 0.00 | 0.31 | 0.12 | 88 | 1006.1 |
| 20260507063105 | 52 | 293 | 2.6 | 7.8 | 0.00 | 0.31 | 0.12 | 88 | 1006.5 |
| 20260507061553 | 53 | 295 | 6.1 | 9.6 | 0.00 | 0.31 | 0.12 | 88 | 1006.7 |
| 20260507060050 | 53 | 297 | 4.3 | 8.7 | 0.00 | 0.31 | 0.12 | 89 | 1006.7 |
| 20260507054548 | 53 | 293 | 6.1 | 10.4 | 0.00 | 0.31 | 0.12 | 88 | 1006.8 |
| 20260507053046 | 54 | 322 | 5.2 | 8.7 | 0.00 | 0.31 | 0.12 | 90 | 1007.0 |
| 20260507051544 | 54 | 276 | 3.5 | 8.7 | 0.00 | 0.31 | 0.12 | 89 | 1007.0 |
| 20260507050041 | 55 | 274 | 3.5 | 7.8 | 0.00 | 0.31 | 0.12 | 90 | 1006.8 |
| 20260507044538 | 55 | 274 | 4.3 | 12.2 | 0.01 | 0.31 | 0.12 | 90 | 1006.8 |
| 20260507043034 | 56 | 264 | 4.3 | 7.8 | 0.06 | 0.31 | 0.12 | 91 | 1006.8 |
| 20260507041532 | 56 | 275 | 1.7 | 4.3 | 0.07 | 0.31 | 0.12 | 91 | 1007.1 |
| 20260507040032 | 56 | 274 | 1.7 | 4.3 | 0.08 | 0.31 | 0.12 | 91 | 1006.9 |
| 20260507034500 | 57 | 270 | 2.6 | 7.0 | 0.07 | 0.30 | 0.11 | 91 | 1007.0 |
| 20260507033107 | 57 | 257 | 4.3 | 11.3 | 0.02 | 0.25 | 0.06 | 92 | 1007.1 |
| 20260507031556 | 58 | 276 | 2.6 | 7.8 | 0.01 | 0.24 | 0.05 | 93 | 1007.0 |
| 20260507030054 | 58 | 209 | 3.5 | 7.8 | 0.00 | 0.23 | 0.04 | 93 | 1006.6 |
| 20260507024602 | 58 | 200 | 2.6 | 7.8 | 0.00 | 0.23 | 0.04 | 92 | 1006.5 |
| 20260507023050 | 58 | 189 | 0.9 | 8.7 | 0.00 | 0.23 | 0.04 | 92 | 1006.5 |
| 20260507021546 | 57 | 219 | 2.6 | 8.7 | 0.00 | 0.23 | 0.04 | 93 | 1006.3 |
| 20260507020104 | 57 | 190 | 0.0 | 7.0 | 0.00 | 0.23 | 0.04 | 93 | 1006.5 |
| 20260507014544 | 57 | 189 | 0.0 | 6.1 | 0.00 | 0.23 | 0.04 | 93 | 1006.5 |
| 20260507013049 | 57 | 181 | 1.7 | 9.6 | 0.00 | 0.23 | 0.04 | 92 | 1006.4 |
| 20260507011524 | 57 | 185 | 0.0 | 5.2 | 0.00 | 0.23 | 0.04 | 92 | 1006.2 |
| 20260507010031 | 57 | 183 | 0.9 | 7.0 | 0.00 | 0.23 | 0.04 | 92 | 1006.6 |
| 20260507004522 | 57 | 200 | 4.3 | 9.6 | 0.00 | 0.23 | 0.04 | 92 | 1006.7 |
| 20260507003021 | 57 | 182 | 2.6 | 8.7 | 0.00 | 0.23 | 0.04 | 92 | 1006.8 |
| 20260507001600 | 57 | 196 | 2.6 | 9.6 | 0.00 | 0.23 | 0.04 | 92 | 1006.6 |
| 20260507000101 | 57 | 196 | 0.9 | 8.7 | 0.01 | 0.23 | 0.04 | 92 | 1006.4 |
| 20260506234557 | 57 | 128 | 0.0 | 9.6 | 0.02 | 0.23 | 0.04 | 92 | 1006.4 |
| 20260506233108 | 57 | 208 | 0.9 | 7.8 | 0.03 | 0.23 | 0.04 | 92 | 1006.2 |
| 20260506231559 | 57 | 178 | 0.0 | 6.1 | 0.03 | 0.23 | 0.04 | 92 | 1006.3 |
| 20260506230053 | 57 | 178 | 0.0 | 4.3 | 0.02 | 0.22 | 0.03 | 91 | 1006.2 |
| 20260506224553 | 57 | 185 | 0.0 | 6.1 | 0.02 | 0.21 | 0.02 | 91 | 1006.3 |
| 20260506223049 | 57 | 185 | 0.9 | 7.8 | 0.01 | 0.20 | 0.01 | 91 | 1006.2 |
| 20260506221549 | 58 | 151 | 0.0 | 4.3 | 0.02 | 0.20 | 0.01 | 91 | 1006.2 |
| 20260506220046 | 58 | 182 | 0.9 | 4.3 | 0.04 | 0.20 | 0.01 | 91 | 1006.2 |
| 20260506214544 | 58 | 186 | 0.0 | 4.3 | 0.04 | 0.19 | 0.00 | 91 | 1006.4 |
| 20260506213056 | 58 | 165 | 0.0 | 2.6 | 0.07 | 0.19 | 0.19 | 91 | 1006.4 |
| 20260506211538 | 58 | 89 | 0.0 | 6.1 | 0.08 | 0.18 | 0.18 | 91 | 1006.6 |
| 20260506210036 | 58 | 152 | 0.9 | 6.1 | 0.07 | 0.16 | 0.16 | 91 | 1006.8 |
| 20260506204536 | 58 | 162 | 0.0 | 0.0 | 0.07 | 0.15 | 0.15 | 90 | 1006.9 |
| 20260506201502 | 58 | 105 | 0.0 | 5.2 | 0.03 | 0.10 | 0.10 | 90 | 1007.0 |
| 20260506200059 | 58 | 179 | 0.0 | 7.0 | 0.04 | 0.09 | 0.09 | 89 | 1007.2 |
| 20260506194602 | 58 | 181 | 0.0 | 13.9 | 0.04 | 0.08 | 0.08 | 89 | 1007.5 |
| 20260506193055 | 59 | 130 | 0.0 | 4.3 | 0.06 | 0.08 | 0.08 | 88 | 1007.4 |
| 20260506191555 | 59 | 114 | 0.0 | 4.3 | 0.06 | 0.07 | 0.07 | 88 | 1007.5 |
| 20260506190053 | 59 | 155 | 0.0 | 5.2 | 0.05 | 0.05 | 0.05 | 86 | 1007.4 |
| 20260506184553 | 60 | 163 | 0.9 | 7.0 | 0.04 | 0.04 | 0.04 | 84 | 1007.6 |
| 20260506183056 | 61 | 173 | 0.0 | 3.5 | 0.02 | 0.02 | 0.02 | 82 | 1007.9 |
| 20260506181613 | 62 | 175 | 0.0 | 6.1 | 0.01 | 0.01 | 0.01 | 79 | 1008.0 |
| 20260506180045 | 63 | 159 | 0.0 | 7.8 | 0.00 | 0.00 | 0.00 | 76 | 1008.1 |
| 20260506174545 | 64 | 197 | 4.3 | 13.9 | 0.00 | 0.00 | 0.00 | 72 | 1008.2 |
| 20260506173055 | 66 | 166 | 0.9 | 14.8 | 0.00 | 0.00 | 0.00 | 69 | 1008.3 |
| 20260506171542 | 67 | 177 | 0.0 | 14.8 | 0.00 | 0.00 | 0.00 | 67 | 1008.4 |
| 20260506170041 | 68 | 175 | 0.9 | 15.6 | 0.00 | 0.00 | 0.00 | 65 | 1008.2 |
| 20260506164541 | 68 | 198 | 0.9 | 8.7 | 0.00 | 0.00 | 0.00 | 63 | 1008.1 |
| 20260506163040 | 68 | 168 | 0.9 | 8.7 | 0.00 | 0.00 | 0.00 | 64 | 1008.4 |
| 20260506161538 | 68 | 181 | 0.0 | 13.9 | 0.00 | 0.00 | 0.00 | 65 | 1008.8 |
| 20260506160013 | 68 | 98 | 0.0 | 7.0 | 0.00 | 0.00 | 0.00 | 65 | 1008.8 |
| 20260506154512 | 68 | 191 | 0.0 | 8.7 | 0.00 | 0.00 | 0.00 | 64 | 1009.0 |
| 20260506153003 | 68 | 168 | 7.0 | 18.2 | 0.00 | 0.00 | 0.00 | 64 | 1009.1 |
| 20260506151503 | 68 | 175 | 0.9 | 13.9 | 0.00 | 0.00 | 0.00 | 65 | 1009.2 |
| 20260506150002 | 67 | 177 | 1.7 | 14.8 | 0.00 | 0.00 | 0.00 | 67 | 1009.3 |
| 20260506144500 | 66 | 200 | 0.0 | 7.8 | 0.00 | 0.00 | 0.00 | 69 | 1009.6 |
| 20260506143059 | 65 | 201 | 1.7 | 8.7 | 0.00 | 0.00 | 0.00 | 71 | 1009.6 |
| 20260506141557 | 66 | 176 | 0.0 | 8.7 | 0.00 | 0.00 | 0.00 | 70 | 1009.7 |
| 20260506134556 | 65 | 173 | 0.0 | 9.6 | 0.00 | 0.00 | 0.00 | 74 | 1009.5 |
| 20260506133026 | 64 | 176 | 0.9 | 12.2 | 0.00 | 0.00 | 0.00 | 75 | 1009.5 |
| 20260506131625 | 63 | 169 | 0.9 | 7.8 | 0.00 | 0.00 | 0.00 | 78 | 1009.8 |
| 20260506130022 | 61 | 189 | 0.0 | 7.0 | 0.00 | 0.00 | 0.00 | 81 | 1010.0 |
| 20260506124521 | 60 | 178 | 0.0 | 12.2 | 0.00 | 0.00 | 0.00 | 81 | 1010.1 |
| 20260506123020 | 60 | 129 | 0.0 | 5.2 | 0.00 | 0.00 | 0.00 | 82 | 1010.1 |
| 20260506121520 | 59 | 130 | 0.0 | 6.1 | 0.00 | 0.00 | 0.00 | 83 | 1010.3 |
| 20260506120100 | 59 | 168 | 0.0 | 5.2 | 0.00 | 0.00 | 0.00 | 84 | 1010.0 |
| 20260506114609 | 58 | 190 | 0.9 | 6.1 | 0.00 | 0.00 | 0.00 | 85 | 1010.3 |
| 20260506113058 | 58 | 67 | 0.0 | 6.1 | 0.00 | 0.00 | 0.00 | 85 | 1010.5 |
| 20260506111517 | 58 | 205 | 0.9 | 8.7 | 0.00 | 0.00 | 0.00 | 85 | 1010.6 |
| 20260506110014 | 57 | 119 | 0.0 | 4.3 | 0.00 | 0.00 | 0.00 | 86 | 1010.5 |
| 20260506104513 | 57 | 159 | 0.0 | 5.2 | 0.00 | 0.00 | 0.00 | 86 | 1010.3 |
| 20260506103014 | 57 | 93 | 0.0 | 1.7 | 0.00 | 0.00 | 0.00 | 86 | 1010.4 |
| 20260506101512 | 57 | 173 | 0.0 | 0.0 | 0.00 | 0.00 | 0.00 | 86 | 1010.4 |
| 20260506100011 | 57 | 179 | 0.0 | 4.3 | 0.00 | 0.00 | 0.00 | 85 | 1010.3 |
| 20260506094508 | 57 | 168 | 0.0 | 2.6 | 0.00 | 0.00 | 0.00 | 85 | 1010.4 |